Tracking 28790 objects as of 19-Apr-2024
HD Live streaming from Space Station
objects crossing your sky now

FENGYUN 1C DEB

Track FENGYUN 1C DEB now!
10-day predictions


NORAD ID: 30836
Int'l Code: 1999-025AVW
Perigee: 844.7 km
Apogee: 884.7 km
Inclination: 98.8 °
Period: 102.1 minutes
Semi major axis: 7235 km
RCS: 0.0097 m2 (small)
Launch date: May 10, 1999
Source: People's Republic of China (PRC)
Launch site: Taiyaun Space Center, China (TSC)

Note: This is SATELLITE DEBRIS
Your satellite tracking list
Your tracking list is empty




NASA's NSSDC Master Catalog

Two Line Element Set (TLE):
1 30836U 99025AVW 24108.04422405  .00001363  00000-0  78658-3 0  9991
2 30836  98.8108 148.0241 0027674 157.5506 202.6882 14.10526106534748
Source of the keplerian elements: AFSPC